DateTimeUTC,F1_A11,F1_S11,BsB_S11,BsG_S11,BsR_S11,BbsB_S11,BbsG_S11,BbsR_S11,BaB_A11,BaG_A11,BaR_A11,Tu_S11,T_S11,Uu_S11,U_S11,P_S11,T1_A11
2021-07-19T03:00:00Z,00000200,20000000,,,,,,,-000.31,0000.01,0000.10,18.7,25.2,14.3,09.6,0674.4,31.0
2021-07-19T03:01:00Z,00000200,20000000,,,,,,,-000.22,-000.48,0000.07,18.7,25.2,14.3,09.6,0674.4,31.0
2021-07-19T03:02:00Z,00000200,20000000,,,,,,,-000.05,0000.00,-000.54,18.6,25.2,14.4,09.6,0674.4,31.1
2021-07-19T03:03:00Z,00000200,60000000,,,,,,,0004.61,0004.44,0003.17,18.6,25.2,14.4,09.6,0674.4,31.0
2021-07-19T03:04:00Z,00000200,40000000,0027.66,0021.07,0012.08,0003.42,0002.72,0001.86,0005.90,0005.30,0004.47,18.7,25.0,14.4,09.8,0675.3,31.0
2021-07-19T03:05:00Z,00000200,00000000,0027.59,0020.67,0012.92,0003.04,0002.60,0002.08,0006.15,0005.35,0004.02,18.7,24.9,14.3,09.8,0675.4,31.0
2021-07-19T03:06:00Z,00000200,00000000,0029.57,0021.75,0012.87,0003.82,0002.61,0001.90,0006.06,0005.62,0004.14,18.7,24.9,14.4,09.9,0675.4,31.0
2021-07-19T03:07:00Z,00000200,00000000,0030.12,0022.38,0013.15,0003.75,0002.68,0001.76,0006.33,0005.85,0004.62,18.7,24.9,14.4,09.9,0675.4,31.0
2021-07-19T03:08:00Z,00000200,00000000,0030.05,0022.85,0013.91,0003.59,0002.49,0002.49,0006.23,0005.62,0004.38,18.7,24.9,14.4,09.9,0675.4,31.0
2021-07-19T03:09:00Z,00000200,00000000,0030.84,0022.02,0014.51,0002.98,0002.77,0002.39,0006.35,0005.87,0004.61,18.7,24.9,14.4,09.9,0675.4,31.1
2021-07-19T03:10:00Z,00000200,00000000,0031.72,0023.03,0013.95,0003.79,0002.63,0001.80,0006.59,0005.98,0004.26,18.7,24.9,14.4,09.8,0675.4,31.0
2021-07-19T03:11:00Z,00000200,00000000,0031.59,0022.50,0013.70,0003.88,0002.53,0002.00,0006.23,0005.89,0004.67,18.7,24.9,14.4,09.9,0675.4,31.0
2021-07-19T03:12:00Z,00000200,00000000,0029.89,0023.14,0014.51,0003.88,0002.77,0002.40,0006.35,0005.88,0004.58,18.7,24.9,14.3,09.8,0675.5,31.0
2021-07-19T03:13:00Z,00000200,00000000,0030.40,0023.07,0013.97,0003.36,0002.68,0002.24,0006.40,0005.54,0003.88,18.7,24.9,14.5,09.9,0675.5,31.0
2021-07-19T03:14:00Z,00000200,00000000,0030.60,0022.77,0013.48,0003.61,0002.74,0002.08,0006.49,0005.97,0004.66,18.7,24.9,14.4,09.9,0675.5,31.0
2021-07-19T03:15:00Z,00000200,00000000,0029.26,0021.59,0013.06,0002.87,0002.67,0002.10,0006.14,0005.63,0004.50,18.7,24.9,14.4,09.9,0675.4,31.0
2021-07-19T03:16:00Z,00000200,00000000,0028.57,0021.27,0012.60,0003.61,0002.65,0001.83,0005.94,0005.45,0004.35,18.7,24.9,14.5,10.0,0675.4,31.0
2021-07-19T03:17:00Z,00000200,00000000,0028.72,0021.16,0012.84,0003.54,0002.47,0001.78,0006.03,0005.30,0003.93,18.7,24.9,14.6,10.0,0675.3,31.0
2021-07-19T03:18:00Z,00000200,00000000,0028.94,0021.06,0012.62,0003.64,0002.40,0001.83,0005.92,0005.35,0004.03,18.7,24.9,14.5,09.9,0675.4,31.0
2021-07-19T03:19:00Z,00000200,00000000,0028.68,0021.31,0012.69,0003.29,0002.44,0001.74,0006.02,0005.48,0004.21,18.7,24.9,14.5,10.0,0675.4,31.0
2021-07-19T03:20:00Z,00000200,00000000,0028.03,0021.13,0012.58,0003.64,0002.71,0002.10,0006.02,0005.52,0004.35,18.7,24.9,14.4,09.9,0675.4,31.0
2021-07-19T03:21:00Z,00000200,00000000,0028.72,0020.90,0012.96,0002.69,0002.61,0001.68,0005.60,0005.32,0004.00,18.8,24.9,14.4,09.9,0675.4,31.0
2021-07-19T03:22:00Z,00000200,00000000,0028.55,0020.15,0012.44,0003.55,0002.57,0001.98,0006.08,0005.28,0004.06,18.9,25.0,14.3,09.9,0675.3,31.1
2021-07-19T03:23:00Z,00000200,00000000,0028.11,0020.66,0012.30,0002.57,0002.64,0002.05,0005.33,0005.42,0003.99,19.0,25.0,14.3,09.9,0675.4,31.1
2021-07-19T03:24:00Z,00000200,00000000,0026.49,0020.03,0012.12,0003.13,0002.46,0002.15,0005.48,0004.55,0004.14,19.0,25.0,14.2,09.8,0675.4,31.1
2021-07-19T03:25:00Z,00000200,00000000,0026.01,0019.35,0011.92,0003.17,0002.57,0001.97,0005.58,0005.20,0003.31,19.0,25.1,14.2,09.8,0675.4,31.1
2021-07-19T03:26:00Z,00000200,00000000,0026.40,0018.64,0011.26,0003.15,0002.56,0001.59,0005.11,0004.94,0003.78,19.0,25.0,14.2,09.8,0675.3,31.1
2021-07-19T03:27:00Z,00000200,00000000,0025.76,0018.40,0011.96,0002.55,0002.58,0001.69,0005.41,0004.91,0003.82,18.9,25.0,14.2,09.8,0675.4,31.1
2021-07-19T03:28:00Z,00000200,00000000,0024.59,0018.49,0011.30,0002.76,0002.38,0001.78,0005.15,0004.65,0003.69,18.9,25.0,14.1,09.7,0675.3,31.0
2021-07-19T03:29:00Z,00000200,00000000,0024.78,0018.35,0011.12,0002.55,0002.08,0001.86,0005.20,0004.82,0003.58,18.9,25.0,14.1,09.8,0675.3,31.0
2021-07-19T03:30:00Z,00000200,00000000,0024.65,0017.86,0011.16,0002.63,0002.07,0001.56,0005.35,0004.54,0003.63,18.9,25.0,14.2,09.8,0675.3,31.0
2021-07-19T03:31:00Z,00000200,00000000,0023.77,0018.14,0010.79,0003.27,0002.22,0001.53,0005.08,0004.60,0003.27,18.9,25.0,14.2,09.8,0675.4,31.0
2021-07-19T03:32:00Z,00000200,00000000,0024.46,0017.03,0010.59,0002.73,0002.45,0001.58,0004.53,0004.42,0003.46,18.9,25.0,14.1,09.7,0675.4,31.1
2021-07-19T03:33:00Z,00000200,00000000,0022.30,0016.71,0010.26,0003.02,0002.07,0001.68,0004.91,0004.27,0003.66,18.9,25.0,14.2,09.8,0675.3,31.0
2021-07-19T03:34:00Z,00000200,00000000,0022.27,0016.54,0009.50,0002.73,0002.07,0001.41,0005.06,0004.61,0003.35,18.9,25.0,14.2,09.8,0675.3,31.0
2021-07-19T03:35:00Z,00000200,00000000,0022.32,0016.07,0009.50,0002.66,0002.06,0001.68,0004.54,0004.33,0002.95,18.9,25.0,14.2,09.8,0675.3,31.0
2021-07-19T03:36:00Z,00000200,00000000,0022.26,0015.50,0009.40,0003.23,0001.80,0001.56,0004.40,0004.15,0003.23,18.8,24.9,14.2,09.8,0675.4,31.0
2021-07-19T03:37:00Z,00000200,00000000,0021.80,0015.58,0009.22,0002.52,0001.85,0001.26,0004.68,0003.86,0003.02,18.8,24.9,14.2,09.8,0675.4,31.0
2021-07-19T03:38:00Z,00000200,00000000,0021.16,0015.41,0008.66,0002.54,0001.86,0001.20,0004.77,0004.45,0003.20,18.8,24.9,14.2,09.8,0675.4,31.0
2021-07-19T03:39:00Z,00000200,00000000,0021.22,0014.95,0008.53,0002.37,0001.85,0001.27,0004.26,0003.88,0003.11,18.8,24.9,14.1,09.7,0675.4,31.0
2021-07-19T03:40:00Z,00000200,00000000,0020.41,0014.60,0008.28,0002.96,0001.59,0000.91,0004.09,0003.77,0003.02,18.8,24.9,14.2,09.8,0675.4,31.0
2021-07-19T03:41:00Z,00000200,00000000,0020.05,0014.22,0007.90,0002.49,0001.34,0001.58,0004.44,0003.70,0002.71,18.8,24.9,14.2,09.8,0675.4,31.0
2021-07-19T03:42:00Z,00000200,00000000,0020.60,0014.14,0008.28,0002.69,0001.86,0001.63,0004.27,0003.89,0003.05,18.8,24.9,14.2,09.7,0675.4,31.0
2021-07-19T03:43:00Z,00000200,00000000,0020.32,0014.12,0007.86,0002.36,0001.79,0001.42,0004.10,0004.11,0002.83,18.8,24.9,14.2,09.8,0675.4,31.0
2021-07-19T03:44:00Z,00000200,00000000,0018.96,0013.26,0007.91,0001.88,0001.63,0001.15,0004.05,0003.51,0002.76,18.8,24.9,14.2,09.8,0675.4,31.0
2021-07-19T03:45:00Z,00000200,00000000,0018.64,0013.44,0007.47,0002.18,0001.72,0001.46,0003.91,0003.55,0002.79,18.8,24.9,14.2,09.8,0675.4,31.0
2021-07-19T03:46:00Z,00000200,00000000,0018.57,0012.91,0007.45,0002.20,0001.81,0001.26,0003.69,0003.54,0002.56,18.8,24.9,14.2,09.8,0675.3,31.1
2021-07-19T03:47:00Z,00000200,00000000,0017.71,0012.81,0007.26,0001.40,0001.66,0001.08,0003.59,0003.75,0002.71,18.8,24.9,14.2,09.8,0675.3,31.0
2021-07-19T03:48:00Z,00000200,00000000,0017.82,0012.26,0007.02,0001.73,0001.38,0001.18,0004.24,0003.08,0002.60,18.8,24.9,14.3,09.8,0675.3,31.0
2021-07-19T03:49:00Z,00000200,00000000,0017.42,0012.20,0006.77,0002.11,0001.94,0001.01,0003.72,0003.60,0002.58,18.8,24.9,14.2,09.8,0675.3,31.0
2021-07-19T03:50:00Z,00000200,00000000,0017.67,0012.08,0006.97,0002.07,0001.60,0000.99,0003.46,0003.44,0002.48,18.8,24.9,14.1,09.7,0675.4,31.0
2021-07-19T03:51:00Z,00000200,00000000,0017.08,0012.29,0007.18,0002.00,0001.89,0001.23,0003.69,0002.85,0002.57,18.8,24.9,14.2,09.8,0675.3,31.0
2021-07-19T03:52:00Z,00000200,00000000,0015.16,0011.97,0006.85,0002.65,0001.70,0001.09,0003.58,0003.27,0002.32,18.8,24.9,14.2,09.8,0675.4,31.1
2021-07-19T03:53:00Z,00000200,00000000,0016.52,0011.36,0006.83,0002.00,0001.55,0001.06,0003.50,0003.45,0002.26,18.8,24.9,14.2,09.8,0675.4,31.1
2021-07-19T03:54:00Z,00000200,00000000,0014.83,0011.13,0006.50,0001.99,0001.31,0001.00,0003.38,0002.88,0002.29,18.8,24.9,14.1,09.7,0675.4,31.0
2021-07-19T03:55:00Z,00000200,00000000,0016.62,0011.70,0006.66,0001.76,0001.28,0001.32,0003.55,0003.23,0002.67,18.8,24.9,14.2,09.8,0675.4,31.0
2021-07-19T03:56:00Z,00000200,00000000,0016.23,0011.61,0006.47,0001.99,0001.44,0000.91,0003.39,0003.20,0002.43,18.8,24.9,14.2,09.8,0675.4,31.1
2021-07-19T03:57:00Z,00000200,40000000,,,,,,,0001.10,0001.07,0000.41,18.9,24.9,13.8,09.6,0675.5,31.1
2021-07-19T03:58:00Z,00000200,60000000,,,,,,,0000.04,-000.09,0000.30,18.7,25.1,14.2,09.6,0674.4,31.0
2021-07-19T03:59:00Z,00000200,20000000,,,,,,,-000.42,-000.30,-000.45,18.7,25.2,14.3,09.6,0674.4,31.0
